Location: Peebles
(55.6412°N, 3.1714°W)
Time: 09:27:46
(UTC+01:00)

KEPLER-1 (CASE) - Visible Passes

Search period start: 26 June 2022 00:00
Search period end: 06 July 2022 00:00
Orbit: 441 x 459 km, 97.4° (Epoch: 25 June)

Date Brightness Start Highest point End Pass type
(mag) Time Alt. Az. Time Alt. Az. Time Alt. Az.
26 Jun ? 00:57:19 10° WSW 00:58:41 12° W 01:00:03 10° WNW visible
27 Jun ? 00:20:37 10° SSW 00:23:29 26° W 00:26:22 10° NW visible
27 Jun ? 23:45:17 11° S 23:48:25 61° WSW 23:51:47 10° NNW visible
28 Jun ? 23:10:13 10° SSE 23:13:30 54° ENE 23:16:49 10° N visible
29 Jun ? 00:44:28 10° SW 00:46:35 16° W 00:48:43 10° NW visible
30 Jun ? 00:08:22 11° SSW 00:11:21 34° W 00:14:29 10° NNW visible
30 Jun ? 23:33:02 11° SSE 23:36:15 84° WSW 23:39:40 10° NNW visible
01 Jul ? 22:58:07 10° SE 23:01:17 40° ENE 23:04:30 10° N visible
02 Jul ? 00:31:37 10° SW 00:34:13 21° W 00:36:50 10° NW visible
02 Jul ? 23:55:56 12° S 23:58:57 46° W 00:02:15 10° NNW visible
03 Jul ? 23:20:31 10° SSE 23:23:49 70° ENE 23:27:13 10° N visible
04 Jul ? 00:55:27 10° WSW 00:57:01 13° W 00:58:36 10° WNW visible
05 Jul ? 00:18:43 10° SSW 00:21:35 27° W 00:24:33 10° NW visible
05 Jul ? 23:43:14 12° S 23:46:17 66° WSW 23:49:41 10° NNW visible
